Regional Weather Roundup
Issued by NWS Nashville, TN

Home | Current Version | Previous Version | Text Only | Print | Product List | Glossary On
Versions: 1 2 3 4 5 6 7 8 9 10 11 12 13 14 15 16 17 18 19 20 21 22 23 24 25 26 27 28 29 30 31 32 33 34 35 36 37 38 39 40 41 42 43 44 45 46 47 48 49 50
000
ASUS44 KOHX 300010
RWROHX
MIDDLE TENNESSEE HOURLY WEATHER ROUNDUP
NATIONAL WEATHER SERVICE NASHVILLE TN
700 PM CDT SAT AUG 29 2015

NOTE: "FAIR" INDICATES FEW OR NO CLOUDS BELOW 12,000 FEET WITH
NO SIGNIFICANT WEATHER AND/OR OBSTRUCTIONS TO VISIBILITY.

* THESE REPORTS ARE NOT UNDER NWS QUALITY CONTROL AND MAY NOT
  REPORT WEATHER SUCH AS PRECIPITATION AND FOG.


TNZ005>011-023>034-057-059-062>066-078-080-300100
...NORTHERN MIDDLE TENNESSEE...

CITY           SKY/WX    TMP DP  RH WIND       PRES   REMARKS
CLARKSVILLE    PTCLDY    82  70  66 S9        30.03R
CROSSVILLE     CLOUDY    76  66  71 VRB3      30.16S
DICKSON        PTCLDY    79  70  73 SE7       30.06R
LIVINGSTON     CLOUDY    70  66  86 N6        30.14R VSB 1
NASHVILLE      MOCLDY    76  65  68 S12       30.08S
SMYRNA         MOCLDY    77  69  76 S5        30.10R
$$
TNZ056-058-060-061-075>077-079-093>097-300100
...SOUTHERN MIDDLE TENNESSEE...

CITY           SKY/WX    TMP DP  RH WIND       PRES   REMARKS
COLUMBIA       CLEAR     75  75 100 S7        30.07S
LEWISBURG      MOCLDY    72  67  84 S3        30.09R
MCMINNVILLE    PTCLDY    72  72 100 S3        30.13F
SHELBYVILLE    CLEAR     73  70  88 SE6       30.11S
TULLAHOMA      CLEAR     70  68  94 SE6       30.14S
WINCHESTER     CLOUDY    70  68  94 E5        30.14S
$$


...KEY TO REMARKS...
VSB - VISIBILITY IN MILES
WCI - WIND CHILL INDEX
HX  - HEAT INDEX




USA.gov is the U.S. government's official web portal to all federal, state and local government web resources and services.